EW3966 Weather Reports


Display with metric or nautical units.
time (UTC)temp
F
wind
direction
speed
MPH
gust
MPH
rain 1hr
in
rain 24hr
in
rain mn
in
humidity
%
barometer
mb
20230129180540 37 236 9.0 28.0 0.00 0.01 0.01 63 1019.4
20230129180040 37 291 12.0 28.0 0.00 0.01 0.01 64 1019.2
20230129175540 37 252 10.0 24.0 0.00 0.01 0.01 64 1019.1
20230129175041 37 284 11.0 25.0 0.00 0.01 0.01 62 1018.8
20230129174548 38 164 10.0 23.0 0.00 0.01 0.01 64 1019.0
20230129174037 38 299 9.0 29.0 0.00 0.01 0.01 68 1018.9
20230129173538 38 215 10.0 33.0 0.00 0.01 0.01 68 1018.9
20230129173038 38 263 12.0 25.0 0.00 0.01 0.01 67 1018.8
20230129172037 38 216 9.0 29.0 0.00 0.01 0.01 69 1018.6
20230129171550 38 254 14.0 33.0 0.00 0.01 0.01 68 1018.6
20230129171037 38 191 14.0 33.0 0.00 0.01 0.01 70 1018.4
20230129170636 38 212 10.0 27.0 0.00 0.01 0.01 71 1018.4
20230129170039 38 194 12.0 29.0 0.00 0.01 0.01 72 1018.5
20230129165536 38 219 12.0 29.0 0.00 0.01 0.01 73 1018.5
20230129165040 38 268 12.0 26.0 0.00 0.01 0.01 73 1018.5
20230129164540 38 240 12.0 28.0 0.01 0.01 0.01 74 1018.4
20230129164034 39 240 12.0 29.0 0.01 0.01 0.01 76 1018.4
20230129163533 38 214 14.0 29.0 0.01 0.01 0.01 78 1018.4
20230129163033 38 241 8.0 21.0 0.01 0.01 0.01 82 1018.5
20230129162033 37 230 10.0 25.0 0.01 0.01 0.01 83 1018.6
20230129161532 37 311 9.0 25.0 0.01 0.01 0.01 85 1018.7
20230129161032 37 199 8.0 20.0 0.01 0.01 0.01 88 1018.8
20230129160534 36 187 7.0 20.0 0.01 0.01 0.01 88 1018.7
20230129160033 36 249 8.0 21.0 0.01 0.01 0.01 88 1018.6
20230129155532 36 236 9.0 24.0 0.01 0.01 0.01 88 1018.7
20230129155031 37 233 12.0 31.0 0.01 0.01 0.01 85 1018.8
20230129154532 39 219 10.0 23.0 0.00 0.00 0.00 80 1018.8
20230129154030 40 226 9.0 21.0 0.00 0.00 0.00 78 1018.7
20230129153530 40 216 8.0 28.0 0.00 0.00 0.00 77 1018.7
20230129153028 40 216 6.0 28.0 0.00 0.00 0.00 78 1019.0
20230129152028 39 255 8.0 21.0 0.00 0.00 0.00 79 1019.2
20230129151527 39 191 10.0 23.0 0.00 0.00 0.00 80 1019.3
20230129151025 38 168 6.0 23.0 0.00 0.00 0.00 81 1019.3
20230129150524 38 224 5.0 24.0 0.00 0.00 0.00 82 1019.5
20230129150023 38 157 6.0 24.0 0.00 0.00 0.00 82 1019.6
20230129145523 38 137 6.0 21.0 0.00 0.00 0.00 83 1019.9
20230129145021 37 223 7.0 19.0 0.00 0.00 0.00 83 1019.9
20230129144519 37 241 5.0 14.0 0.00 0.00 0.00 83 1020.0
20230129144019 37 230 5.0 13.0 0.00 0.00 0.00 83 1020.1
20230129143517 37 242 6.0 16.0 0.00 0.00 0.00 83 1020.2
20230129143019 36 214 3.0 18.0 0.00 0.00 0.00 84 1020.2
20230129142014 35 239 5.0 18.0 0.00 0.00 0.00 84 1020.6
20230129141518 35 199 4.0 11.0 0.00 0.00 0.00 84 1020.7
20230129141012 34 208 4.0 12.0 0.00 0.00 0.00 84 1020.8
20230129140513 34 152 6.0 12.0 0.00 0.00 0.00 84 1020.9
20230129140008 33 238 6.0 15.0 0.00 0.00 0.00 84 1020.9
20230129135508 33 209 4.0 12.0 0.00 0.00 0.00 85 1021.1
20230129135006 33 196 3.0 12.0 0.00 0.00 0.00 85 1021.2
20230129134508 32 198 4.0 12.0 0.00 0.00 0.00 85 1021.3
20230129134004 32 153 2.0 9.0 0.00 0.00 0.00 84 1021.4
20230129133504 32 189 2.0 9.0 0.00 0.00 0.00 84 1021.3
20230129133001 31 304 2.0 10.0 0.00 0.00 0.00 84 1021.4
20230129132001 31 202 3.0 10.0 0.00 0.00 0.00 84 1021.5
20230129131602 30 244 3.0 10.0 0.00 0.00 0.00 84 1021.6
20230129131059 30 198 3.0 9.0 0.00 0.00 0.00 84 1021.7
20230129130558 30 239 3.0 9.0 0.00 0.00 0.00 84 1021.7
20230129130106 29 237 5.0 10.0 0.00 0.00 0.00 84 1021.8
20230129125600 29 266 4.0 10.0 0.00 0.00 0.00 84 1021.8
20230129125057 29 251 4.0 11.0 0.00 0.00 0.00 84 1021.7
20230129124612 29 239 3.0 11.0 0.00 0.00 0.00 84 1021.8
20230129124055 29 196 3.0 10.0 0.00 0.00 0.00 85 1021.7
20230129123555 28 208 3.0 7.0 0.00 0.00 0.00 85 1021.8
20230129123116 27 259 2.0 7.0 0.00 0.00 0.00 85 1021.8
20230129122055 27 243 1.0 6.0 0.00 0.00 0.00 84 1022.2
20230129121552 26 258 3.0 7.0 0.00 0.00 0.00 84 1022.2
20230129121055 26 280 2.0 6.0 0.00 0.00 0.00 84 1022.3
20230129120551 26 245 3.0 6.0 0.00 0.00 0.00 84 1022.3
20230129120050 26 274 3.0 7.0 0.00 0.00 0.00 84 1022.4
20230129115552 26 278 4.0 7.0 0.00 0.00 0.00 84 1022.4
20230129115048 25 269 2.0 6.0 0.00 0.00 0.00 84 1022.4
20230129114555 25 271 3.0 6.0 0.00 0.00 0.00 85 1022.5
20230129114049 25 248 2.0 5.0 0.00 0.00 0.00 84 1022.5
20230129113548 25 295 2.0 5.0 0.00 0.00 0.00 84 1022.5
20230129113049 25 272 3.0 6.0 0.00 0.00 0.00 84 1022.6
20230129112048 25 253 2.0 5.0 0.00 0.00 0.00 84 1022.6
20230129111549 25 243 3.0 5.0 0.00 0.00 0.00 83 1022.6
20230129111046 25 278 2.0 6.0 0.00 0.00 0.00 83 1022.6
20230129110546 25 274 2.0 6.0 0.00 0.00 0.00 83 1022.6
20230129110045 26 241 2.0 5.0 0.00 0.00 0.00 82 1022.5
20230129105544 26 261 2.0 5.0 0.00 0.00 0.00 82 1022.5
20230129105043 26 282 3.0 5.0 0.00 0.00 0.00 82 1022.5
20230129104545 26 261 1.0 5.0 0.00 0.00 0.00 82 1022.5
20230129104042 26 261 2.0 4.0 0.00 0.00 0.00 81 1022.4
20230129103542 26 268 1.0 5.0 0.00 0.00 0.00 81 1022.4
20230129103041 26 260 2.0 5.0 0.00 0.00 0.00 81 1022.4
20230129102042 26 270 1.0 4.0 0.00 0.00 0.00 81 1022.5
20230129101543 26 268 1.0 4.0 0.00 0.00 0.00 80 1022.7
20230129101039 27 259 1.0 3.0 0.00 0.00 0.00 80 1022.7
20230129100538 27 264 2.0 4.0 0.00 0.00 0.00 80 1022.8
20230129100039 27 270 2.0 3.0 0.00 0.00 0.00 80 1022.8
20230129095539 27 253 2.0 4.0 0.00 0.00 0.00 79 1022.9
20230129095035 27 234 1.0 2.0 0.00 0.00 0.00 79 1023.0
20230129094537 28 235 1.0 3.0 0.00 0.00 0.00 79 1023.0
20230129094039 28 249 1.0 4.0 0.00 0.00 0.00 79 1023.1
20230129093533 28 222 1.0 6.0 0.00 0.00 0.00 79 1023.2
20230129093033 28 217 2.0 6.0 0.00 0.00 0.00 78 1023.1
20230129092032 28 248 1.0 6.0 0.00 0.00 0.00 78 1023.2
20230129091533 28 229 1.0 6.0 0.00 0.00 0.00 78 1023.2
20230129091031 28 239 2.0 6.0 0.00 0.00 0.00 78 1023.2
20230129090530 28 270 2.0 6.0 0.00 0.00 0.00 78 1023.2
20230129090029 29 221 1.0 8.0 0.00 0.00 0.00 78 1023.2
20230129085529 29 205 3.0 8.0 0.00 0.00 0.00 78 1023.1
20230129085030 29 232 2.0 5.0 0.00 0.00 0.00 79 1023.1
20230129084531 29 226 1.0 5.0 0.00 0.00 0.00 79 1023.0
20230129084028 29 218 0.0 5.0 0.00 0.00 0.00 79 1023.1
20230129083528 29 219 0.0 6.0 0.00 0.00 0.00 79 1023.2
20230129083027 29 230 3.0 8.0 0.00 0.00 0.00 79 1023.2
20230129082028 29 199 0.0 4.0 0.00 0.00 0.00 82 1023.3
20230129081528 29 241 1.0 5.0 0.00 0.00 0.00 82 1023.2
20230129081129 29 243 1.0 5.0 0.00 0.00 0.00 82 1023.3
20230129080526 28 234 1.0 5.0 0.00 0.00 0.00 82 1023.3
20230129080027 28 232 0.0 5.0 0.00 0.00 0.00 82 1023.2
20230129075526 28 222 1.0 5.0 0.00 0.00 0.00 83 1023.1
20230129075024 28 240 0.0 2.0 0.00 0.00 0.00 83 1022.9
20230129074525 28 268 0.0 1.0 0.00 0.00 0.00 84 1022.9
20230129074027 28 268 0.0 2.0 0.00 0.00 0.00 84 1022.9
20230129073523 28 268 0.0 2.0 0.00 0.00 0.00 84 1023.1
20230129073023 28 268 0.0 2.0 0.00 0.00 0.00 84 1023.1
20230129072024 28 268 0.0 2.0 0.00 0.00 0.00 84 1023.1
20230129071525 28 268 1.0 2.0 0.00 0.00 0.00 84 1023.0
20230129071025 28 268 0.0 2.0 0.00 0.00 0.00 84 1022.9
20230129070524 28 268 0.0 1.0 0.00 0.00 0.00 84 1023.0
20230129070034 28 268 0.0 0.0 0.00 0.00 0.00 84 1022.9
20230129065523 28 268 0.0 0.0 0.00 0.00 0.00 84 1023.0
20230129065021 29 268 0.0 0.0 0.00 0.00 0.00 84 1023.1
20230129064532 29 268 0.0 1.0 0.00 0.00 0.00 84 1023.4
20230129064021 29 268 0.0 2.0 0.00 0.00 0.00 83 1023.5
20230129063520 29 268 0.0 2.0 0.00 0.00 0.00 83 1023.5
20230129063020 28 268 1.0 2.0 0.00 0.00 0.00 83 1023.6
20230129062018 29 268 1.0 2.0 0.00 0.00 0.00 83 1023.6
20230129061519 29 269 0.0 1.0 0.00 0.00 0.00 83 1023.6
20230129061018 29 269 0.0 1.0 0.00 0.00 0.00 83 1023.7
20230129060517 29 269 0.0 1.0 0.00 0.00 0.00 83 1023.7
20230129060017 29 269 0.0 1.0 0.00 0.00 0.00 82 1023.9
20230129055516 28 269 0.0 1.0 0.00 0.00 0.00 83 1023.9
20230129055015 29 269 0.0 1.0 0.00 0.00 0.00 82 1024.0
20230129054516 29 269 0.0 1.0 0.00 0.00 0.00 82 1024.0
20230129054014 29 269 0.0 1.0 0.00 0.00 0.00 82 1024.0
20230129053518 29 269 0.0 1.0 0.00 0.00 0.00 82 1024.1
20230129053019 28 269 0.0 2.0 0.00 0.00 0.00 82 1024.1
20230129052019 28 269 0.0 2.0 0.00 0.00 0.00 82 1024.1
20230129051522 28 267 0.0 2.0 0.00 0.00 0.00 82 1024.1
20230129051015 28 267 1.0 2.0 0.00 0.00 0.00 82 1024.2
20230129050514 28 267 1.0 2.0 0.00 0.00 0.00 81 1024.2
20230129050014 28 267 0.0 0.0 0.00 0.00 0.00 81 1024.0
20230129045513 28 267 0.0 0.0 0.00 0.00 0.00 81 1024.0
20230129045014 28 267 0.0 0.0 0.00 0.00 0.00 81 1024.1
20230129044531 28 267 0.0 1.0 0.00 0.00 0.00 81 1024.3
20230129044013 28 267 0.0 1.0 0.00 0.00 0.00 81 1024.2
20230129043514 28 267 0.0 0.0 0.00 0.00 0.00 80 1024.3
20230129043013 28 267 0.0 1.0 0.00 0.00 0.00 81 1024.3
20230129042011 28 267 0.0 0.0 0.00 0.00 0.00 80 1024.3
20230129041512 28 267 0.0 0.0 0.00 0.00 0.00 80 1024.2
20230129041011 28 267 0.0 0.0 0.00 0.00 0.00 80 1024.2
20230129040511 28 267 0.0 0.0 0.00 0.00 0.00 80 1024.2
20230129040011 29 267 0.0 0.0 0.00 0.00 0.00 80 1024.3
20230129035511 28 267 0.0 1.0 0.00 0.00 0.00 79 1024.5
20230129035010 29 267 0.0 1.0 0.00 0.00 0.00 80 1024.6
20230129034509 29 267 0.0 4.0 0.00 0.00 0.00 79 1024.4
20230129034010 29 267 1.0 4.0 0.00 0.00 0.00 79 1024.4
20230129033509 29 325 0.0 4.0 0.00 0.00 0.00 79 1024.3
20230129033007 29 284 1.0 4.0 0.00 0.00 0.00 79 1024.4
20230129032008 29 277 1.0 4.0 0.00 0.00 0.00 79 1024.7
20230129031507 29 258 1.0 4.0 0.00 0.00 0.00 79 1024.7
20230129031007 29 280 1.0 3.0 0.00 0.00 0.00 80 1024.9
20230129030508 29 265 0.0 2.0 0.00 0.00 0.00 80 1025.1
20230129030009 29 265 0.0 1.0 0.00 0.00 0.00 80 1025.1
20230129025509 29 265 0.0 1.0 0.00 0.00 0.00 79 1025.3
20230129025009 29 265 0.0 0.0 0.00 0.00 0.00 79 1025.4
20230129024510 29 265 0.0 2.0 0.00 0.00 0.00 79 1025.6
20230129024008 29 265 0.0 2.0 0.00 0.00 0.00 78 1025.7
20230129023507 29 265 1.0 2.0 0.00 0.00 0.00 78 1025.3
20230129023007 29 265 0.0 2.0 0.00 0.00 0.00 78 1025.5
20230129022008 29 265 0.0 4.0 0.00 0.00 0.00 77 1025.6
20230129021509 29 265 1.0 5.0 0.00 0.00 0.00 77 1025.4
20230129021006 29 256 1.0 5.0 0.00 0.00 0.00 77 1025.5
20230129020507 29 270 1.0 5.0 0.00 0.00 0.00 77 1025.5
20230129020007 29 271 1.0 4.0 0.00 0.00 0.00 77 1025.8
20230129015506 29 230 0.0 1.0 0.00 0.00 0.00 77 1025.9
20230129015009 29 230 0.0 2.0 0.00 0.00 0.00 77 1026.3
20230129014507 29 230 0.0 2.0 0.00 0.00 0.00 77 1026.1
20230129014006 29 226 0.0 4.0 0.00 0.00 0.00 78 1026.1
20230129013506 28 224 0.0 5.0 0.00 0.00 0.00 78 1026.1
20230129013009 28 216 1.0 5.0 0.00 0.00 0.00 78 1026.1
20230129012006 28 219 2.0 6.0 0.00 0.00 0.00 79 1026.3
20230129011506 28 194 0.0 4.0 0.00 0.00 0.00 80 1026.2
20230129011005 28 230 0.0 2.0 0.00 0.00 0.00 80 1026.3
20230129010506 28 229 0.0 2.0 0.00 0.00 0.00 80 1026.2
20230129010006 28 266 0.0 2.0 0.00 0.00 0.00 81 1026.1
20230129005506 28 266 0.0 2.0 0.00 0.00 0.00 80 1026.3
20230129005007 28 261 0.0 2.0 0.00 0.00 0.00 80 1026.6
20230129004506 28 261 0.0 4.0 0.00 0.00 0.00 81 1026.6
20230129004008 28 237 1.0 2.0 0.00 0.00 0.00 81 1026.4
20230129003505 28 237 0.0 2.0 0.00 0.00 0.00 81 1026.7
20230129003006 28 227 0.0 1.0 0.00 0.00 0.00 81 1026.7
20230129002010 28 227 0.0 2.0 0.00 0.00 0.00 81 1027.0
20230129001508 28 227 0.0 4.0 0.00 0.00 0.00 81 1027.0
20230129001007 28 232 0.0 2.0 0.00 0.00 0.00 81 1027.1
20230129000507 27 145 0.0 2.0 0.00 0.00 0.00 81 1027.2
20230129000014 27 128 0.0 5.0 0.00 0.00 0.00 81 1027.2
20230128235510 27 147 0.0 5.0 0.00 0.00 0.00 81 1027.2
20230128235007 27 124 0.0 2.0 0.00 0.00 0.00 81 1027.3
20230128234506 27 135 0.0 3.0 0.00 0.00 0.00 81 1027.3
20230128234006 27 163 0.0 4.0 0.00 0.00 0.00 81 1027.2
20230128233508 27 129 0.0 4.0 0.00 0.00 0.00 81 1027.3
20230128233017 26 138 0.0 2.0 0.00 0.00 0.00 81 1027.3
20230128232004 26 109 0.0 1.0 0.00 0.00 0.00 80 1027.2
20230128231504 26 109 0.0 1.0 0.00 0.00 0.00 80 1027.3
20230128231003 26 109 0.0 1.0 0.00 0.00 0.00 80 1027.3
20230128230503 26 109 0.0 1.0 0.00 0.00 0.00 80 1027.2
20230128230003 26 109 0.0 1.0 0.00 0.00 0.00 79 1027.2
20230128225507 26 109 0.0 1.0 0.00 0.00 0.00 79 1027.2
20230128225003 26 109 0.0 0.0 0.00 0.00 0.00 79 1027.3
20230128224503 26 109 0.0 0.0 0.00 0.00 0.00 79 1027.2
20230128224003 26 109 0.0 1.0 0.00 0.00 0.00 79 1027.3
20230128223503 26 109 0.0 2.0 0.00 0.00 0.00 79 1027.4
20230128223004 26 109 0.0 2.0 0.00 0.00 0.00 78 1027.5
20230128222006 26 224 0.0 2.0 0.00 0.00 0.00 78 1027.6
20230128221504 26 270 0.0 2.0 0.00 0.00 0.00 78 1027.6
20230128221004 26 241 0.0 2.0 0.00 0.00 0.00 78 1027.6
20230128220504 26 244 0.0 4.0 0.00 0.00 0.00 78 1027.5
20230128220003 26 170 0.0 2.0 0.00 0.00 0.00 78 1027.6
20230128215503 26 142 0.0 2.0 0.00 0.00 0.00 77 1027.6
20230128215005 26 143 0.0 4.0 0.00 0.00 0.00 77 1027.4
20230128214503 26 143 0.0 4.0 0.00 0.00 0.00 77 1027.5
20230128214004 26 130 0.0 2.0 0.00 0.00 0.00 77 1027.5
20230128213503 27 143 0.0 1.0 0.00 0.00 0.00 76 1027.5
20230128213002 27 143 0.0 1.0 0.00 0.00 0.00 76 1027.7
20230128212004 27 134 0.0 2.0 0.00 0.00 0.00 76 1027.7
20230128211503 27 133 0.0 2.0 0.00 0.00 0.00 75 1027.8
20230128211003 27 133 0.0 4.0 0.00 0.00 0.00 75 1027.7
20230128210504 27 133 0.0 4.0 0.00 0.00 0.00 75 1027.8
20230128210010 27 139 0.0 4.0 0.00 0.00 0.00 75 1027.8
20230128205503 27 147 1.0 2.0 0.00 0.00 0.00 75 1027.8
20230128205003 27 153 0.0 4.0 0.00 0.00 0.00 74 1027.8
20230128204503 27 162 0.0 4.0 0.00 0.00 0.00 74 1027.9
20230128204002 27 139 0.0 4.0 0.00 0.00 0.00 74 1027.9
20230128203503 28 120 0.0 4.0 0.00 0.00 0.00 74 1027.9
20230128203002 28 120 0.0 4.0 0.00 0.00 0.00 74 1027.9
20230128202001 28 148 0.0 4.0 0.00 0.00 0.00 73 1027.8
20230128201501 28 148 1.0 4.0 0.00 0.00 0.00 72 1027.9
20230128201001 28 172 1.0 4.0 0.00 0.00 0.00 72 1027.9
20230128200601 28 130 0.0 4.0 0.00 0.00 0.00 72 1027.8
20230128200108 28 152 1.0 4.0 0.00 0.00 0.00 72 1027.7
20230128195600 28 181 0.0 4.0 0.00 0.00 0.00 71 1027.8
20230128195100 28 122 0.0 4.0 0.00 0.00 0.00 72 1027.7
20230128194624 28 91 0.0 4.0 0.00 0.00 0.00 72 1027.6
20230128194059 28 137 1.0 4.0 0.00 0.00 0.00 71 1027.5
20230128193600 28 125 1.0 3.0 0.00 0.00 0.00 71 1027.5
20230128193124 28 97 1.0 3.0 0.00 0.00 0.00 71 1027.5
20230128192059 29 153 1.0 3.0 0.00 0.00 0.00 70 1027.6
20230128191559 29 99 0.0 6.0 0.00 0.00 0.00 70 1027.5
20230128191058 29 135 1.0 6.0 0.00 0.00 0.00 70 1027.4
20230128190558 29 129 2.0 5.0 0.00 0.00 0.00 69 1027.6
20230128190059 29 149 1.0 5.0 0.00 0.00 0.00 69 1027.5
20230128185557 29 105 1.0 5.0 0.00 0.00 0.00 69 1027.6
20230128185100 29 161 1.0 4.0 0.00 0.00 0.00 69 1027.7
20230128184557 29 97 1.0 6.0 0.00 0.00 0.00 69 1027.6
20230128184057 29 106 2.0 6.0 0.00 0.00 0.00 67 1027.4
20230128183557 30 109 1.0 5.0 0.00 0.00 0.00 68 1027.5
20230128183056 29 152 2.0 6.0 0.00 0.00 0.00 68 1027.5
20230128182055 29 115 1.0 7.0 0.00 0.00 0.00 69 1027.5
20230128181554 29 77 2.0 7.0 0.00 0.00 0.00 67 1027.4
20230128181055 29 124 1.0 6.0 0.00 0.00 0.00 68 1027.4